Location: Banff
(51.1667°N, 115.5667°W)
Time: 12:51:47
(UTC+00:00)

Tiros 1 - Pass Details

Date: 30 July 2021
Orbit: 630 x 663 km, 48.4° (Epoch: 27 September)

Event Time Altitude Azimuth Distance (km) Brightness Sun altitude
Rises 05:59:37 0° 270° (W) 2,968 10.9 -16.4°
Reaches altitude 10° 06:01:59 10° 267° (W) 2,051 10.0 -16.6°
Maximum altitude 06:06:38 60° 188° (S) 740 7.1 -16.9°
Enters shadow 06:09:12 25° 117° (ESE) 1,285 8.2 -17.1°
